Location: Bessat
(45.8735°N, 1.9924°E)
Time: 19:46:15
(UTC+00:00)

COSMOS 2406 - Visible Passes

Search period start: 17 September 2021 00:00
Search period end: 27 September 2021 00:00
Orbit: 842 x 865 km, 71.0° (Epoch: 17 September)

Date Brightness Start Highest point End Pass type
(mag) Time Alt. Az. Time Alt. Az. Time Alt. Az.
17 Sep 3.9 19:06:02 10° NNW 19:11:41 56° WSW 19:17:17 10° S visible
18 Sep 4.0 18:54:34 10° NW 19:00:12 56° WSW 19:05:48 10° S visible
19 Sep 4.0 18:43:06 10° NW 18:48:43 55° WSW 18:54:18 10° S visible
20 Sep 4.1 18:31:37 10° NW 18:37:15 54° WSW 18:42:49 10° S visible
21 Sep 4.2 18:20:09 10° NW 18:25:45 54° WSW 18:31:19 10° S visible
22 Sep 4.2 18:08:40 10° NW 18:14:17 53° WSW 18:19:49 10° S visible
